Home > Weather > Carlisle > Past weeks

Flag for United Kingdom Weather for the Past 2 Weeks in Carlisle, England, United Kingdom

Now
48 °F

Partly sunny.


Feels Like: 42 °F
Forecast: 46 / 61 °F
Wind: 18 mph from Southwest

Location: Spadeadam

Current Time: May 4, 2016 at 1:55:19 PM

Latest Report: May 4, 2016 at 12:50 PM


Visibility: N/A

Pressure: 30.15 "Hg

Humidity: 71%

Dew Point: 39 °F

Location of CarlisleLocation

Historic Weather in Carlisle — Graph

°F

Carlisle Temperature Yesterday

Maximum temperature yesterday: 48 °F (at 12:50 PM)
Minimum temperature yesterday: 36 °F (at 12:50 AM)
Average temperature yesterday: 43 °F

High & Low Weather Summary for the Past Weeks

 TemperatureHumidityPressure
High61 °F (Apr 21, 12:50 PM)100% (Apr 20, 6:50 AM)30.42 "Hg (Apr 20, 6:50 AM)
Low28 °F (Apr 23, 3:50 AM)35% (Apr 19, 5:50 PM)29.42 "Hg (Apr 29, 4:50 AM)
Average40 °F81%30.01 "Hg
* Reported Apr 19 11:50 AM — May 4 11:50 AM, Carlisle, Weather by CustomWeather, © 2016

Note: Actual official high and low records may vary slightly from our data, if they occured in-between our weather recording intervals... More about our weather records

Advertising

Carlisle Weather History for the Previous 24 Hours

Scroll right to see more
 ConditionsComfort  
Time TempWeatherWind HumidityBarometerVisibility
11:50 AM
Wed, May 4
48 °FPartly sunny.18 mph66%30.15 "HgN/A
10:50 AM50 °FScattered clouds.22 mph67%30.15 "HgN/A
9:50 AM46 °FScattered clouds.18 mph76%30.15 "HgN/A
8:50 AM45 °FPassing clouds.20 mph81%30.15 "HgN/A
7:50 AM45 °FQuite cool.20 mph81%30.15 "HgN/A
6:50 AM43 °FPassing clouds.15 mph87%30.15 "HgN/A
5:50 AM41 °FPassing clouds.14 mph93%30.18 "HgN/A
4:50 AM41 °FPassing clouds.13 mph93%30.18 "HgN/A
3:50 AM43 °FPassing clouds.13 mph93%30.18 "HgN/A
2:50 AM43 °FPassing clouds.10 mph93%30.18 "HgN/A
1:50 AM41 °FPassing clouds.8 mph87%30.18 "HgN/A
12:50 AM41 °FPartly cloudy.3 mph93%30.21 "HgN/A
11:50 PM
Tue, May 3
41 °FPartly cloudy.6 mph93%30.21 "HgN/A
10:50 PM41 °FPartly cloudy.8 mph93%30.21 "HgN/A
9:50 PM43 °FPassing clouds.8 mph93%30.21 "HgN/A
8:50 PM43 °FPassing clouds.13 mph87%30.18 "HgN/A
7:50 PM45 °FPartly sunny.13 mph87%30.18 "HgN/A
6:50 PM45 °FBroken clouds.15 mph81%30.18 "HgN/A
5:50 PM45 °FSprinkles. Partly sunny.14 mph87%30.18 "HgN/A
4:50 PM48 °FScattered clouds.21 mph76%30.15 "HgN/A
3:50 PM46 °FScattered clouds.28 mph82%30.15 "HgN/A
2:50 PM46 °FPartly sunny.23 mph87%30.12 "HgN/A
1:50 PM45 °FBroken clouds.21 mph87%30.12 "HgN/A
Weather by CustomWeather, © 2016

See weather overviewHow to use our weather pages